TimeCST,TemperatureF,Dew PointF,Humidity,Sea Level PressureIn,VisibilityMPH,Wind Direction,Wind SpeedMPH,Gust SpeedMPH,PrecipitationIn,Events,Conditions,WindDirDegrees,DateUTC
12:53 AM,61.0,61.0,100,30.13,8.0,NE,8.1,-,N/A,,Overcast,50,2012-02-27 06:53:00
1:42 AM,62.6,62.6,100,30.13,9.0,NE,4.6,-,N/A,,Overcast,50,2012-02-27 07:42:00
1:53 AM,62.1,62.1,100,30.13,9.0,ENE,4.6,-,N/A,,Overcast,60,2012-02-27 07:53:00
2:20 AM,62.6,62.6,100,30.13,8.0,NE,5.8,-,N/A,,Overcast,50,2012-02-27 08:20:00
2:53 AM,62.1,62.1,100,30.12,8.0,ENE,5.8,-,N/A,,Overcast,60,2012-02-27 08:53:00
3:53 AM,63.0,63.0,100,30.11,9.0,ENE,8.1,-,N/A,,Overcast,60,2012-02-27 09:53:00
4:53 AM,63.0,63.0,100,30.12,10.0,ENE,10.4,-,N/A,,Overcast,70,2012-02-27 10:53:00
5:09 AM,62.6,62.6,100,30.13,10.0,ENE,10.4,-,N/A,,Overcast,70,2012-02-27 11:09:00
5:15 AM,62.6,62.6,100,30.12,10.0,East,10.4,-,N/A,,Overcast,80,2012-02-27 11:15:00
5:43 AM,62.6,62.6,100,30.13,8.0,ENE,11.5,-,0.00,,Overcast,70,2012-02-27 11:43:00
5:53 AM,63.0,63.0,100,30.13,8.0,ENE,12.7,-,0.00,,Overcast,70,2012-02-27 11:53:00
6:53 AM,62.1,62.1,100,30.15,9.0,ENE,10.4,-,N/A,,Overcast,70,2012-02-27 12:53:00
7:08 AM,62.6,62.6,100,30.16,7.0,ENE,11.5,-,N/A,,Overcast,70,2012-02-27 13:08:00
7:17 AM,62.6,62.6,100,30.16,7.0,ENE,13.8,-,N/A,,Overcast,70,2012-02-27 13:17:00
7:53 AM,63.0,63.0,100,30.18,9.0,ENE,12.7,-,N/A,,Overcast,70,2012-02-27 13:53:00
8:40 AM,64.4,62.6,94,30.19,10.0,ENE,13.8,-,N/A,,Overcast,60,2012-02-27 14:40:00
8:53 AM,64.0,63.0,96,30.19,10.0,ENE,16.1,-,N/A,,Overcast,70,2012-02-27 14:53:00
9:53 AM,64.9,63.0,93,30.20,10.0,ENE,16.1,-,N/A,,Overcast,70,2012-02-27 15:53:00
10:53 AM,66.0,64.0,93,30.20,10.0,ENE,17.3,-,N/A,,Overcast,70,2012-02-27 16:53:00
11:53 AM,69.1,64.9,87,30.19,10.0,East,15.0,20.7,N/A,,Overcast,80,2012-02-27 17:53:00
12:53 PM,66.9,64.0,90,30.17,10.0,ENE,16.1,-,N/A,,Overcast,70,2012-02-27 18:53:00
1:21 PM,66.2,64.4,94,30.17,10.0,ENE,16.1,-,N/A,,Overcast,60,2012-02-27 19:21:00
2:21 PM,66.2,62.6,88,30.15,2.0,East,16.1,-,N/A,,Overcast,80,2012-02-27 20:21:00
2:30 PM,66.2,64.4,94,30.15,8.0,ENE,12.7,-,N/A,,Overcast,70,2012-02-27 20:30:00
2:53 PM,64.9,64.0,97,30.15,8.0,ENE,11.5,-,N/A,,Overcast,70,2012-02-27 20:53:00
3:53 PM,64.9,63.0,93,30.14,6.0,East,15.0,-,N/A,,Overcast,90,2012-02-27 21:53:00
4:53 PM,64.0,63.0,96,30.15,7.0,East,12.7,-,0.00,,Overcast,80,2012-02-27 22:53:00
5:05 PM,62.6,62.6,100,30.15,1.8,East,16.1,23.0,N/A,,Overcast,80,2012-02-27 23:05:00
5:33 PM,62.6,62.6,100,30.15,2.0,East,12.7,-,N/A,,Overcast,80,2012-02-27 23:33:00
5:53 PM,63.0,63.0,100,30.15,3.0,East,12.7,-,N/A,,Overcast,80,2012-02-27 23:53:00
6:53 PM,62.1,62.1,100,30.15,4.0,East,16.1,-,0.00,,Overcast,80,2012-02-28 00:53:00
7:53 PM,62.1,62.1,100,30.15,6.0,East,17.3,23.0,N/A,,Overcast,80,2012-02-28 01:53:00
8:45 PM,62.6,62.6,100,30.16,5.0,East,15.0,-,N/A,,Overcast,90,2012-02-28 02:45:00
8:53 PM,62.1,62.1,100,30.17,5.0,East,16.1,-,N/A,,Overcast,90,2012-02-28 02:53:00
9:53 PM,63.0,63.0,100,30.18,5.0,East,11.5,-,N/A,,Overcast,80,2012-02-28 03:53:00
10:53 PM,62.1,62.1,100,30.17,3.0,East,11.5,-,N/A,,Overcast,90,2012-02-28 04:53:00
11:12 PM,62.6,62.6,100,30.18,2.0,East,11.5,-,N/A,,Overcast,90,2012-02-28 05:12:00
11:20 PM,62.6,62.6,100,30.17,1.5,East,10.4,-,N/A,,Overcast,90,2012-02-28 05:20:00
11:35 PM,62.6,62.6,100,30.17,0.5,East,11.5,-,N/A,Fog,Fog,90,2012-02-28 05:35:00
11:53 PM,62.1,62.1,100,30.16,0.5,East,11.5,-,N/A,Fog,Fog,100,2012-02-28 05:53:00